Weather History for Mammoth, CA

Change the Weather History Date:

Saturday, June 29, 2013

  Actual Average Record
Temperature  
Mean Temperature 70 °F -  
Max Temperature 93 °F 75 °F 93 °F (2013)
Min Temperature 46 °F 61 °F 33 °F (2012)
Cooling Degree Days 4    
Growing Degree Days 20 (Base 50)    
Moisture  
Dew Point 36 °F    
Average Humidity 31    
Maximum Humidity 62    
Minimum Humidity 9    
Precipitation  
Precipitation 0.00 in - - ()
Sea Level Pressure  
Sea Level Pressure 30.32 in    
Wind  
Wind Speed 5 mph (West)    
Max Wind Speed 25 mph    
Max Gust Speed 36 mph    
Visibility 10 miles    
Events      
Averages and records for this station are not official NWS values.
T = Trace of Precipitation, MM = Missing Value Source: NWS Daily Summary

Daily Weather History Graph

Daily Weather History Graph

Search for Another Location

Airport:

Trip Planner

Search our weather history database for the weather conditions in past years. The results will help you decide how hot, cold, wet, or windy it might be!

Date:

Astronomy

Jun. 29, 2013 Rise Set
Actual Time 5:36 AM PDT 8:20 PM PDT
Civil Twilight 5:05 AM PDT 8:51 PM PDT
Nautical Twilight 4:26 AM PDT 9:30 PM PDT
Astronomical Twilight 3:42 AM PDT 10:14 PM PDT
Moon 12:00 AM PDT (6/29) 12:44 PM PDT (6/29)
Length of Visible Light 15h 46m
Length of Day
14h 44m
Waning Gibbous, 54% of the Moon is Illuminated
Jun 29
Waning Gibbous
Jun 29
Last Quarter
Jul 8
New
Jul 15
First Quarter
Jul 22
Full

Hourly Weather History & Observations

Time (PDT) Temp. Windchill Dew Point Humidity Pressure Visibility Wind Dir Wind Speed Gust Speed Precip Events Conditions
12:15 AM 64.4 °F - 41.0 °F 42% 30.37 in 10.0 mi SSE 3.5 mph - N/A   Clear
12:35 AM 60.8 °F - 39.2 °F 45% 30.37 in 10.0 mi Calm Calm - N/A   Clear
12:55 AM 57.2 °F - 39.2 °F 51% 30.36 in 10.0 mi Calm Calm - N/A   Clear
1:15 AM 55.4 °F - 37.4 °F 51% 30.36 in 10.0 mi Calm Calm - N/A   Clear
1:35 AM 53.6 °F - 37.4 °F 54% 30.36 in 10.0 mi WNW 3.5 mph - N/A   Clear
1:55 AM 55.4 °F - 37.4 °F 51% 30.36 in 10.0 mi Calm Calm - N/A   Clear
2:15 AM 51.8 °F - 35.6 °F 54% 30.36 in 10.0 mi NW 3.5 mph - N/A   Clear
2:35 AM 48.2 °F - 33.8 °F 58% 30.36 in 10.0 mi Calm Calm - N/A   Clear
2:55 AM 50.0 °F - 33.8 °F 54% 30.35 in 10.0 mi North 3.5 mph - N/A   Clear
3:15 AM 53.6 °F - 35.6 °F 51% 30.35 in 10.0 mi North 4.6 mph - N/A   Clear
3:35 AM 51.8 °F - 35.6 °F 54% 30.35 in 10.0 mi Calm Calm - N/A   Clear
3:55 AM 53.6 °F - 35.6 °F 51% 30.34 in 10.0 mi Calm Calm - N/A   Clear
4:15 AM 51.8 °F - 35.6 °F 54% 30.35 in 10.0 mi North 4.6 mph - N/A   Clear
4:35 AM 53.6 °F - 35.6 °F 51% 30.34 in 10.0 mi Calm Calm - N/A   Clear
4:55 AM 51.8 °F - 35.6 °F 54% 30.35 in 10.0 mi Calm Calm - N/A   Clear
5:15 AM 50.0 °F - 35.6 °F 58% 30.35 in 10.0 mi Calm Calm - N/A   Clear
5:35 AM 48.2 °F - 33.8 °F 58% 30.35 in 10.0 mi North 3.5 mph - N/A   Clear
5:55 AM 46.4 °F 45.2 °F 33.8 °F 62% 30.35 in 10.0 mi NNW 3.5 mph - N/A   Clear
6:15 AM 48.2 °F - 35.6 °F 62% 30.35 in 10.0 mi North 3.5 mph - N/A   Clear
6:35 AM 53.6 °F - 35.6 °F 51% 30.35 in 10.0 mi Calm Calm - N/A   Clear
6:55 AM 59.0 °F - 37.4 °F 45% 30.35 in 10.0 mi Calm Calm - N/A   Clear
7:15 AM 62.6 °F - 37.4 °F 39% 30.36 in 10.0 mi Calm Calm - N/A   Clear
7:35 AM 64.4 °F - 39.2 °F 40% 30.36 in 10.0 mi Calm Calm - N/A   Clear
7:55 AM 64.4 °F - 42.8 °F 45% 30.36 in 10.0 mi SE 4.6 mph - N/A   Clear
8:15 AM 68.0 °F - 39.2 °F 35% 30.36 in 10.0 mi SE 4.6 mph - N/A   Clear
8:35 AM 69.8 °F - 39.2 °F 33% 30.35 in 10.0 mi SSE 4.6 mph - N/A   Clear
8:55 AM 73.4 °F - 37.4 °F 27% 30.35 in 10.0 mi Calm Calm - N/A   Clear
9:15 AM 77.0 °F - 39.2 °F 26% 30.35 in 10.0 mi WNW 3.5 mph - N/A   Clear
9:35 AM 80.6 °F - 39.2 °F 23% 30.34 in 10.0 mi ESE 5.8 mph - N/A   Clear
9:55 AM 82.4 °F - 37.4 °F 20% 30.34 in 10.0 mi SE 3.5 mph - N/A   Clear
10:15 AM 82.4 °F - 33.8 °F 17% 30.33 in 10.0 mi East 3.5 mph - N/A   Clear
10:35 AM 84.2 °F - 32.0 °F 15% 30.33 in 10.0 mi ESE 4.6 mph - N/A   Clear
10:55 AM 86.0 °F - 32.0 °F 14% 30.34 in 10.0 mi SE 8.1 mph - N/A   Clear
11:15 AM 86.0 °F - 30.2 °F 13% 30.33 in 10.0 mi East 5.8 mph - N/A   Clear
11:35 AM 87.8 °F - 32.0 °F 14% 30.33 in 10.0 mi ESE 5.8 mph - N/A   Clear
11:55 AM 87.8 °F - 32.0 °F 14% 30.32 in 10.0 mi South 3.5 mph - N/A   Clear
12:15 PM 86.0 °F - 30.2 °F 13% 30.32 in 10.0 mi Calm Calm - N/A   Clear
12:35 PM 91.4 °F - 30.2 °F 11% 30.31 in 10.0 mi ENE 3.5 mph 16.1 mph N/A   Scattered Clouds
12:55 PM 87.8 °F - 30.2 °F 13% 30.31 in 10.0 mi South 9.2 mph - N/A   Scattered Clouds
1:15 PM 91.4 °F - 30.2 °F 11% 30.30 in 10.0 mi NE 3.5 mph - N/A   Clear
1:35 PM 87.8 °F - 28.4 °F 12% 30.30 in 10.0 mi West 4.6 mph - N/A   Scattered Clouds
1:55 PM 87.8 °F - 26.6 °F 11% 30.30 in 10.0 mi South 6.9 mph 19.6 mph N/A   Clear
2:15 PM 91.4 °F - 24.8 °F 9% 30.29 in 10.0 mi West 3.5 mph 21.9 mph N/A   Clear
2:35 PM 93.2 °F - 24.8 °F 9% 30.28 in 10.0 mi SSW 12.7 mph 21.9 mph N/A   Clear
2:55 PM 91.4 °F - 28.4 °F 10% 30.28 in 10.0 mi SSE 3.5 mph 26.5 mph N/A   Clear
3:15 PM 91.4 °F - 30.2 °F 11% 30.27 in 10.0 mi SW 9.2 mph 29.9 mph N/A   Clear
3:35 PM 89.6 °F - 35.6 °F 15% 30.28 in 10.0 mi West 23.0 mph 31.1 mph N/A   Clear
3:55 PM 89.6 °F - 35.6 °F 15% 30.27 in 10.0 mi WNW 24.2 mph 29.9 mph N/A   Clear
4:15 PM 89.6 °F - 33.8 °F 14% 30.26 in 10.0 mi West 15.0 mph 31.1 mph N/A   Clear
4:35 PM 89.6 °F - 35.6 °F 15% 30.26 in 10.0 mi WNW 21.9 mph 35.7 mph N/A   Clear
4:55 PM 87.8 °F - 37.4 °F 17% 30.25 in 10.0 mi West 25.3 mph 34.5 mph N/A   Clear
5:15 PM 87.8 °F - 35.6 °F 16% 30.24 in 10.0 mi West 19.6 mph 32.2 mph N/A   Clear
5:35 PM 87.8 °F - 37.4 °F 17% 30.24 in 10.0 mi West 19.6 mph 29.9 mph N/A   Clear
5:55 PM 87.8 °F - 39.2 °F 18% 30.24 in 10.0 mi West 18.4 mph 31.1 mph N/A   Clear
6:15 PM 86.0 °F - 37.4 °F 18% 30.24 in 10.0 mi WSW 18.4 mph 29.9 mph N/A   Clear
6:35 PM 86.0 °F - 37.4 °F 18% 30.24 in 10.0 mi SW 15.0 mph 29.9 mph N/A   Clear
6:55 PM 84.2 °F - 39.2 °F 20% 30.24 in 10.0 mi WSW 18.4 mph 27.6 mph N/A   Clear
7:15 PM 84.2 °F - 39.2 °F 20% 30.25 in 10.0 mi SW 16.1 mph 25.3 mph N/A   Scattered Clouds
7:35 PM 80.6 °F - 39.2 °F 23% 30.27 in 10.0 mi WNW 12.7 mph 25.3 mph N/A   Scattered Clouds
7:55 PM 78.8 °F - 37.4 °F 23% 30.28 in 10.0 mi NW 19.6 mph 27.6 mph N/A   Scattered Clouds
8:15 PM 78.8 °F - 33.8 °F 20% 30.29 in 10.0 mi WNW 13.8 mph 25.3 mph N/A   Scattered Clouds
8:35 PM 77.0 °F - 35.6 °F 22% 30.29 in 10.0 mi West 13.8 mph 18.4 mph N/A   Scattered Clouds
8:55 PM 73.4 °F - 35.6 °F 25% 30.30 in 10.0 mi WNW 11.5 mph 20.7 mph N/A   Clear
9:15 PM 73.4 °F - 41.0 °F 31% 30.30 in 10.0 mi WNW 15.0 mph 20.7 mph N/A   Clear
9:35 PM 73.4 °F - 41.0 °F 31% 30.31 in 10.0 mi West 9.2 mph - N/A   Clear
9:55 PM 69.8 °F - 41.0 °F 35% 30.32 in 10.0 mi WNW 8.1 mph - N/A   Clear
10:15 PM 68.0 °F - 39.2 °F 35% 30.32 in 10.0 mi WNW 9.2 mph - N/A   Clear
10:35 PM 68.0 °F - 41.0 °F 37% 30.32 in 10.0 mi West 9.2 mph - N/A   Clear
10:55 PM 66.2 °F - 41.0 °F 40% 30.32 in 10.0 mi West 9.2 mph - N/A   Clear
11:15 PM 66.2 °F - 41.0 °F 40% 30.32 in 10.0 mi West 10.4 mph - N/A   Clear
11:35 PM 66.2 °F - 39.2 °F 37% 30.32 in 10.0 mi West 9.2 mph - N/A   Clear
11:55 PM 64.4 °F - 39.2 °F 40% 30.32 in 10.0 mi West 8.1 mph - N/A   Clear